Temperature
22 22 22 21 21 21 20 20 20 19 19 19 19 19 18 18 18 18 18 18 18 18 18 18 18 18 18 18 18 18 18 18 18 17 18 18 18 18 18 18 18 18 17
22 22 22 21 21 21 20 20 20 19 19 19 19 19 18 18 18 18 18 18 18 18 18 18 18 18 18 18 18 18 18 18 18 17 17 17 18 18 18 18 18 18 17
22 22 22 21 21 21 20 20 20 19 19 19 19 18 18 18 18 18 18 18 18 18 18 18 18 18 18 18 18 18 18 18 18 17 17 17 17 18 18 18 17 17 17
23 22 22 21 21 21 20 20 20 19 19 19 19 19 18 18 18 18 18 18 18 18 18 18 18 18 18 18 18 17 17 17 17 17 17 18 18 17 17 17 17 17 17
23 22 22 22 21 21 20 20 20 19 19 19 18 18 18 18 18 18 18 18 18 18 18 18 18 18 18 18 17 17 17 17 17 17 17 17 17 17 17 17 17 17 17
23 23 22 22 21 21 20 20 20 19 19 19 18 18 18 18 18 18 18 18 18 18 18 18 17 17 17 17 17 17 17 17 17 17 17 17 17 17 17 17 17 17 17
23 22 22 22 21 21 20 20 20 19 19 19 18 18 18 18 18 18 18 18 18 18 18 18 17 17 17 17 17 17 17 17 17 17 17 17 17 17 17 17 17 16 16
23 23 22 22 21 21 21 20 20 20 19 19 19 18 18 18 18 18 18 18 18 18 18 18 17 17 17 17 17 17 17 17 17 17 17 17 17 17 17 17 17 16 16
23 23 22 22 22 21 21 20 20 20 19 19 18 18 18 18 18 18 18 18 18 18 17 17 17 17 17 17 17 17 17 17 17 17 17 17 17 17 17 17 16 16 16
23 23 23 22 22 21 21 20 20 20 19 19 18 18 18 18 18 18 18 18 18 18 18 17 17 17 17 17 17 17 17 17 17 16 16 16 16 16 16 16 16 16 16
23 23 22 22 22 21 20 20 20 19 19 19 18 18 18 18 18 18 18 18 18 18 17 17 17 17 17 16 16 16 16 16 16 16 16 16 16 16 16 16 16 16 16
23 23 22 22 21 21 20 20 19 19 19 19 18 18 18 18 18 17 17 17 17 17 17 17 17 17 17 16 16 16 16 16 16 16 16 16 16 16 16 16 16 15 15
23 23 22 22 21 21 20 20 19 19 19 18 18 18 18 17 17 17 17 17 17 17 17 17 17 17 16 16 16 16 16 16 16 16 16 15 15 15 15 15 15 15 15
23 23 22 22 21 21 20 20 20 19 19 18 18 18 18 17 17 17 17 17 17 17 17 17 16 16 16 16 16 16 16 15 15 15 15 15 15 15 15 15 15 15 14
22 22 22 22 21 21 20 20 19 19 19 18 18 18 18 17 17 17 17 17 16 16 16 16 16 16 16 15 15 15 15 15 15 15 15 15 14 14 14 14 14 14 14
22 22 22 22 21 21 20 20 19 19 19 18 18 18 17 17 17 17 17 16 16 16 16 16 16 15 15 15 15 15 15 15 15 15 14 14 14 14 14 14 14 13 13
22 22 22 22 21 21 20 20 19 19 18 18 18 17 17 17 17 17 16 16 16 16 16 16 15 15 15 15 15 14 14 14 14 14 14 14 14 14 14 14 13 13 13
22 22 22 22 21 21 20 20 19 19 18 18 17 17 17 17 16 16 16 16 16 15 15 15 15 15 15 14 14 14 14 14 14 13 13 13 13 13 13 13 13 13 12
22 22 22 21 21 20 20 19 19 18 18 17 17 17 17 16 16 16 16 16 15 15 15 15 15 14 14 14 14 14 14 13 13 13 13 13 13 13 13 13 12 12 12
22 21 21 21 20 20 19 19 18 18 18 17 17 17 16 16 16 16 16 15 15 15 14 14 14 14 14 14 14 13 13 13 13 13 13 13 12 12 12 12 12 12 12
21 21 21 20 20 19 19 18 18 18 17 17 17 16 16 16 16 15 15 15 15 14 14 14 14 13 13 13 13 13 13 13 13 12 12 12 12 12 12 11 11 11 11
20 20 20 20 19 19 18 18 18 17 17 17 16 16 16 15 15 15 15 15 14 14 14 14 13 13 13 13 13 13 12 12 12 12 12 12 11 11 11 11 11 11 11
20 19 19 19 18 18 18 18 17 17 17 16 16 16 15 15 15 15 15 14 14 14 14 13 13 13 13 12 12 12 12 12 12 11 11 11 11 11 10 10 10 10 10
19 19 19 18 18 18 17 17 17 16 16 16 16 15 15 15 14 14 14 14 14 14 13 13 13 13 12 12 12 12 12 11 11 11 11 10 10 10 10 10 10 10 10
18 18 18 18 17 17 17 16 16 16 16 15 15 15 14 14 14 14 14 13 13 13 13 13 13 12 12 12 12 11 11 11 11 10 10 10 10 10 10 10 9 9 9
18 17 17 17 16 16 16 16 15 15 15 15 15 14 14 14 14 13 13 13 13 13 12 12 12 12 11 11 11 11 11 11 10 10 10 10 10 10 9 9 9 9 9
Wind_Speed
7 8 9 9 8 7 6 6 5 5 4 3 3 2 2 1 1 2 4 5 6 6 6 3 2 2 2 3 3 2 2 1 1 1 1 2 2 2 3 3 4 6 9
8 8 8 8 8 8 7 6 6 6 5 3 3 3 2 2 2 1 3 5 6 6 6 4 3 3 2 2 2 2 2 1 2 3 1 1 3 2 2 2 3 4 5
11 10 9 8 8 8 8 7 6 6 5 4 3 2 2 1 0 1 2 3 5 6 5 5 4 4 3 3 3 3 3 2 2 2 4 3 3 2 2 1 1 2 3
10 9 8 8 8 8 7 7 6 6 5 5 4 4 3 3 3 3 2 2 3 5 5 5 5 4 3 4 4 3 3 3 2 2 2 3 4 3 1 2 1 1 2
10 10 9 8 8 7 7 6 6 5 5 5 5 4 3 2 1 1 2 2 2 3 4 5 4 4 3 3 3 3 3 3 3 3 2 2 1 2 3 2 2 1 0
10 8 7 7 6 6 6 5 6 5 4 5 5 5 4 3 2 2 2 1 1 1 2 3 3 3 3 3 3 3 3 3 3 3 3 3 2 3 3 3 2 1 1
9 8 8 7 7 7 6 6 6 4 4 4 4 4 4 4 3 3 3 2 1 1 2 2 2 2 3 3 3 3 3 3 3 3 3 3 3 3 3 3 2 2 1
9 9 10 9 8 8 7 6 6 4 4 4 4 3 3 3 2 3 3 2 2 2 2 2 2 2 2 3 2 2 2 2 3 3 3 2 2 2 3 3 3 2 1
10 10 9 9 8 8 8 8 7 5 4 4 3 3 3 3 2 2 2 2 2 2 1 2 1 1 1 1 2 1 2 2 2 2 2 2 2 1 2 3 4 4 3
10 10 9 8 8 7 7 7 6 6 4 4 3 3 3 2 2 2 1 1 2 1 1 1 1 1 1 1 2 1 1 2 1 1 1 1 1 1 1 2 2 3 4
11 9 8 7 7 7 7 7 6 5 4 4 3 3 3 2 2 2 2 1 1 1 1 2 2 1 1 1 1 1 1 2 1 1 1 1 0 0 0 1 1 1 3
10 10 9 8 7 7 6 6 6 5 4 4 3 4 3 3 2 1 1 1 1 1 1 2 2 2 1 1 1 1 1 2 2 1 1 0 0 0 0 1 1 2 2
9 8 8 8 8 7 6 6 6 5 5 5 4 4 3 3 2 1 1 2 2 2 2 2 2 2 2 1 1 1 1 1 2 2 1 0 1 0 0 1 1 1 2
9 9 8 7 7 7 7 6 5 4 5 5 5 4 3 3 2 2 2 2 2 2 2 2 2 1 2 2 1 2 3 2 2 1 1 1 1 1 0 1 1 2 2
9 10 9 7 7 6 6 6 5 4 5 5 5 4 3 3 3 3 2 2 2 3 2 3 3 2 2 2 2 2 3 3 2 2 2 2 3 3 2 2 2 3 3
10 9 9 8 7 7 6 6 5 4 5 5 4 4 3 3 3 3 2 2 2 2 3 3 3 3 2 2 4 4 3 2 3 3 2 3 4 5 5 5 4 4 4
10 10 9 9 8 7 7 7 5 5 5 4 4 3 3 3 2 2 3 2 2 2 3 2 3 2 2 3 4 4 3 3 2 2 2 3 3 4 3 5 6 5 4
9 9 8 8 7 6 7 7 6 6 5 4 3 2 3 3 2 2 3 2 2 2 2 2 2 2 2 3 4 4 4 3 3 2 3 3 2 2 3 4 4 4 3
9 8 8 8 7 7 7 7 6 6 5 4 3 2 3 3 2 2 2 2 2 2 2 2 2 2 2 3 3 4 3 3 3 2 2 3 3 3 5 5 4 3 3
8 8 8 8 8 7 8 8 6 5 4 3 3 2 3 3 3 2 2 2 3 3 2 2 2 2 2 2 4 5 3 3 2 2 3 3 3 4 5 4 3 2 1
9 9 10 8 7 7 8 8 6 4 3 3 3 3 3 4 4 3 4 3 3 3 2 2 2 2 2 2 3 5 3 3 2 2 1 1 2 4 4 3 2 2 1
9 9 9 7 6 7 8 7 5 3 4 4 4 4 4 4 4 5 4 4 4 3 2 2 2 2 2 3 2 4 3 3 3 2 1 1 2 3 3 2 1 2 2
8 8 9 8 6 5 7 7 4 4 5 5 4 5 5 4 4 5 4 3 2 2 1 1 1 1 2 2 3 3 3 4 3 2 2 2 2 2 2 2 2 1 1
8 7 9 8 6 5 5 5 4 5 5 5 4 4 5 5 5 4 3 3 2 1 1 1 1 0 1 1 1 1 2 3 3 2 2 3 4 3 2 2 2 1 0
6 7 8 7 6 5 5 4 4 5 5 4 4 4 4 5 5 4 3 2 1 1 2 2 2 2 1 2 2 2 2 2 2 2 3 3 2 2 2 2 2 2 2
7 7 7 7 6 5 4 3 4 5 5 4 3 3 3 3 4 4 4 7 5 5 4 2 2 1 1 1 2 3 4 5 6 4 2 1 1 0 1 1 2 2 2
Wind_Direction
171 159 158 155 148 149 152 154 153 161 150 143 142 145 167 196 189 201 197 195 193 187 177 175 177 173 176 196 184 159 166 207 171 112 353 338 300 230 214 204 195 197 202
150 156 157 156 157 159 161 159 162 167 170 169 167 166 169 200 205 211 218 209 201 194 189 178 183 187 182 183 182 160 163 214 167 149 129 333 333 321 247 215 207 205 193
164 162 162 164 162 166 171 172 169 167 174 171 145 124 94 60 76 219 238 230 209 199 193 187 184 187 180 193 202 182 172 201 232 176 161 168 222 277 319 283 217 190 186
160 162 162 163 171 177 171 166 169 168 170 162 155 160 167 186 215 206 212 237 218 202 197 197 196 194 187 195 208 192 185 183 216 234 209 188 174 176 272 319 310 204 198
160 161 164 166 169 168 166 168 165 169 171 169 172 168 178 201 210 182 198 236 244 218 211 200 194 195 194 203 205 193 193 188 191 200 205 205 195 173 176 251 297 346 307
155 154 154 150 153 153 154 156 159 170 174 175 176 176 179 179 167 174 186 223 244 248 242 201 188 194 197 202 201 199 199 199 188 190 190 184 187 194 183 212 230 237 291
150 152 153 161 164 162 159 157 159 166 176 174 174 179 179 175 182 188 193 201 212 234 234 197 184 196 202 198 195 192 207 200 195 199 207 206 212 194 183 186 212 229 254
160 163 165 167 169 168 163 159 164 171 175 174 174 171 174 173 184 187 185 202 211 228 231 198 190 201 195 193 189 187 205 197 207 221 212 206 222 201 189 182 177 202 254
164 166 170 167 168 170 170 169 169 171 175 172 167 158 159 165 176 181 183 208 224 215 195 174 171 184 185 173 152 170 208 195 204 215 205 203 231 219 206 185 175 172 203
167 169 171 173 173 173 167 162 164 173 173 173 174 167 164 160 157 144 161 203 217 195 168 147 136 145 164 154 142 158 207 177 201 193 168 200 245 243 219 190 185 182 183
167 166 170 173 160 158 160 161 162 160 165 171 168 157 157 162 162 170 181 188 190 149 130 129 115 120 137 165 163 189 169 171 180 174 156 188 155 157 228 142 149 157 151
164 163 163 154 148 153 155 157 160 164 172 168 156 153 149 151 159 176 173 133 108 84 91 103 104 112 116 135 156 181 180 175 162 162 141 182 138 107 114 140 153 163 157
153 151 150 151 154 154 154 155 160 165 160 146 139 136 138 141 160 176 142 119 106 82 73 85 95 100 100 106 115 127 134 136 135 135 139 157 114 116 95 121 132 148 138
151 151 154 155 156 156 154 153 157 157 147 137 135 137 144 150 153 141 126 118 113 102 84 75 81 79 89 94 90 98 96 93 93 97 110 101 113 141 136 125 112 102 98
152 157 159 160 157 152 150 150 149 147 142 137 138 153 157 153 139 126 125 120 117 112 102 83 68 60 62 64 99 123 114 101 86 72 67 73 90 83 91 108 116 116 111
159 160 157 154 154 155 155 148 147 150 142 145 153 156 145 134 133 140 130 114 109 105 101 97 89 68 48 71 96 108 113 107 100 89 70 62 66 66 70 80 100 126 134
157 158 158 158 159 156 149 146 143 128 123 133 144 148 144 140 148 142 124 128 125 103 105 104 98 88 60 89 104 104 108 99 101 108 100 83 61 66 70 65 67 71 90
153 154 153 150 151 146 138 134 130 129 127 123 117 123 132 131 121 113 122 132 125 112 108 101 101 94 72 93 107 104 95 85 78 87 104 102 76 61 88 83 71 58 46
145 146 146 140 135 135 134 128 127 129 131 130 124 126 132 126 118 121 135 140 121 101 102 102 104 97 55 70 97 106 99 86 63 56 77 102 95 83 99 95 87 68 28
132 132 128 119 124 133 128 124 129 131 143 151 142 140 133 132 135 133 120 111 115 112 110 92 93 103 78 75 99 113 112 106 87 59 56 76 98 97 100 104 105 98 7
130 127 122 121 129 134 129 126 128 142 155 138 127 130 132 128 121 102 91 94 98 94 90 88 65 63 53 62 108 131 131 145 134 115 76 40 96 105 102 111 128 176 162
125 125 123 122 122 125 128 130 140 144 120 111 111 107 106 115 111 101 95 91 95 92 88 83 60 40 36 51 83 129 133 134 135 148 162 161 109 101 95 97 91 93 88
124 121 122 120 116 123 130 134 144 128 116 107 103 104 98 90 100 108 109 100 103 118 120 106 97 40 18 24 57 91 108 109 116 135 135 110 83 65 40 18 25 47 64
118 116 116 117 115 113 115 126 128 121 116 117 114 111 101 89 81 84 94 102 105 117 120 125 146 92 36 23 26 50 81 86 86 79 77 70 59 43 13 5 2 5 29
110 112 116 119 120 113 106 111 120 120 116 115 116 116 115 114 97 78 63 78 78 173 177 181 165 165 221 259 202 151 140 136 117 89 61 48 36 19 4 1 358 358 13
118 114 115 118 116 112 109 109 116 119 121 119 120 129 130 124 120 111 78 48 50 45 55 77 139 158 198 190 151 142 129 124 123 104 95 80 58 323 299 307 325 341 345
Height
1539 1540 1541 1542 1543 1544 1545 1545 1547 1548 1549 1550 1550 1551 1552 1553 1554 1554 1555 1556 1557 1557 1558 1559 1559 1560 1560 1561 1562 1562 1562 1563 1563 1564 1564 1565 1565 1565 1565 1566 1566 1566 1566
1539 1540 1541 1542 1543 1543 1544 1545 1546 1547 1548 1549 1549 1550 1551 1552 1553 1553 1554 1555 1555 1556 1556 1557 1558 1558 1559 1559 1560 1560 1560 1561 1562 1562 1562 1563 1564 1563 1563 1563 1564 1564 1564
1537 1539 1541 1541 1542 1543 1543 1544 1545 1546 1547 1548 1549 1549 1550 1550 1551 1552 1552 1553 1553 1554 1555 1555 1556 1557 1557 1557 1558 1558 1558 1559 1560 1560 1561 1561 1560 1560 1561 1561 1561 1561 1561
1537 1538 1540 1541 1542 1542 1543 1543 1545 1545 1546 1547 1547 1548 1548 1548 1549 1550 1551 1551 1552 1552 1553 1553 1554 1555 1555 1555 1555 1556 1556 1556 1556 1557 1558 1558 1558 1559 1558 1559 1559 1559 1559
1536 1538 1539 1540 1541 1542 1543 1543 1544 1545 1545 1546 1546 1547 1547 1547 1548 1549 1549 1550 1550 1550 1551 1551 1552 1552 1552 1553 1553 1553 1553 1553 1554 1554 1554 1555 1555 1556 1556 1555 1556 1556 1556
1536 1538 1539 1541 1541 1542 1543 1543 1543 1544 1544 1544 1545 1545 1546 1546 1547 1547 1547 1548 1548 1548 1549 1549 1549 1550 1550 1550 1550 1550 1550 1551 1551 1551 1552 1552 1552 1552 1553 1552 1553 1553 1553
1536 1538 1539 1540 1541 1541 1542 1543 1543 1543 1543 1544 1544 1544 1545 1545 1546 1546 1546 1546 1546 1546 1546 1547 1547 1547 1547 1547 1547 1547 1547 1548 1548 1549 1549 1549 1549 1550 1550 1550 1550 1550 1550
1535 1536 1538 1539 1540 1541 1541 1542 1542 1542 1543 1543 1543 1543 1544 1544 1544 1544 1545 1545 1545 1545 1545 1545 1545 1544 1544 1544 1545 1545 1545 1545 1545 1546 1546 1546 1547 1547 1547 1547 1547 1547 1548
1533 1535 1536 1538 1539 1540 1540 1541 1541 1542 1542 1542 1542 1542 1543 1543 1543 1543 1544 1544 1543 1543 1543 1542 1542 1542 1542 1542 1542 1542 1542 1542 1542 1543 1543 1543 1543 1543 1544 1544 1544 1545 1544
1532 1534 1535 1537 1538 1539 1540 1540 1541 1541 1542 1542 1542 1542 1542 1543 1542 1542 1542 1542 1542 1541 1541 1541 1540 1540 1540 1540 1540 1539 1539 1539 1540 1540 1540 1540 1540 1540 1540 1541 1541 1541 1542
1530 1532 1534 1536 1537 1539 1539 1540 1540 1541 1541 1541 1541 1541 1542 1542 1542 1541 1541 1541 1540 1540 1539 1539 1539 1538 1538 1537 1537 1537 1537 1537 1537 1537 1537 1537 1537 1537 1537 1538 1538 1539 1539
1529 1531 1533 1535 1536 1538 1538 1539 1540 1540 1541 1541 1541 1541 1541 1541 1541 1541 1540 1540 1539 1539 1539 1538 1537 1537 1536 1536 1535 1535 1535 1535 1535 1534 1534 1534 1534 1535 1535 1535 1535 1536 1536
1528 1530 1532 1534 1535 1537 1538 1539 1540 1540 1540 1540 1540 1540 1540 1540 1540 1540 1540 1539 1538 1538 1537 1536 1536 1535 1535 1534 1534 1534 1533 1533 1532 1532 1532 1532 1532 1532 1533 1533 1533 1533 1533
1526 1529 1531 1533 1534 1536 1537 1538 1539 1539 1539 1539 1539 1539 1539 1539 1539 1539 1539 1538 1538 1537 1536 1535 1534 1534 1534 1533 1533 1532 1532 1531 1531 1530 1530 1530 1531 1531 1531 1531 1531 1531 1531
1526 1528 1530 1532 1534 1535 1536 1537 1538 1538 1538 1538 1538 1538 1538 1538 1538 1538 1538 1537 1537 1536 1535 1534 1534 1533 1533 1532 1531 1531 1531 1530 1530 1529 1529 1529 1529 1529 1529 1529 1529 1529 1529
1524 1526 1528 1530 1532 1534 1535 1535 1536 1537 1537 1537 1537 1537 1537 1537 1537 1537 1537 1536 1536 1535 1534 1533 1533 1532 1532 1531 1531 1530 1530 1529 1529 1528 1528 1527 1527 1527 1527 1527 1527 1527 1527
1522 1525 1527 1529 1530 1532 1533 1534 1534 1535 1535 1536 1536 1536 1536 1536 1536 1536 1536 1535 1535 1534 1533 1533 1532 1532 1531 1531 1530 1530 1529 1529 1528 1528 1527 1527 1526 1526 1526 1526 1526 1526 1526
1521 1523 1526 1527 1529 1530 1531 1532 1534 1534 1534 1535 1535 1535 1535 1535 1535 1535 1535 1534 1534 1533 1533 1532 1532 1531 1531 1530 1530 1529 1529 1528 1528 1527 1527 1526 1526 1525 1525 1524 1524 1524 1524
1520 1522 1524 1526 1527 1529 1531 1532 1532 1533 1533 1534 1534 1534 1534 1534 1534 1534 1533 1533 1533 1532 1532 1531 1531 1530 1530 1530 1529 1529 1528 1527 1527 1527 1527 1526 1525 1525 1524 1524 1523 1523 1523
1519 1521 1523 1525 1527 1528 1530 1531 1531 1532 1532 1532 1532 1533 1533 1533 1533 1533 1532 1532 1532 1532 1531 1531 1530 1530 1529 1529 1528 1528 1527 1526 1526 1526 1526 1526 1525 1525 1525 1524 1523 1523 1522
1519 1520 1522 1524 1526 1528 1529 1530 1530 1530 1531 1531 1532 1532 1532 1532 1532 1532 1531 1531 1531 1531 1530 1530 1529 1529 1528 1528 1528 1527 1526 1526 1525 1525 1525 1525 1525 1524 1524 1524 1523 1522 1522
1517 1519 1521 1523 1525 1527 1528 1529 1529 1530 1530 1530 1530 1530 1531 1531 1531 1531 1530 1530 1530 1530 1529 1529 1528 1528 1528 1527 1527 1526 1526 1526 1525 1525 1524 1524 1524 1524 1523 1523 1523 1522 1522
1517 1519 1520 1523 1524 1526 1527 1528 1528 1529 1529 1529 1529 1529 1530 1530 1530 1529 1529 1529 1529 1528 1528 1528 1527 1527 1527 1526 1526 1525 1525 1525 1524 1524 1524 1524 1523 1523 1523 1523 1522 1522 1521
1517 1519 1520 1522 1523 1525 1526 1527 1528 1528 1528 1528 1529 1529 1529 1529 1529 1529 1528 1528 1528 1527 1527 1526 1526 1526 1525 1525 1525 1524 1524 1524 1523 1523 1523 1523 1523 1522 1522 1522 1522 1521 1521
1517 1518 1520 1521 1523 1524 1526 1526 1527 1527 1527 1528 1528 1528 1528 1528 1528 1528 1528 1527 1527 1527 1526 1526 1525 1525 1524 1524 1524 1523 1522 1522 1522 1521 1521 1521 1521 1521 1521 1521 1521 1520 1520
1517 1518 1520 1521 1523 1524 1525 1525 1526 1526 1527 1527 1527 1527 1527 1527 1527 1527 1527 1526 1526 1526 1525 1525 1525 1524 1524 1523 1522 1522 1522 1521 1521 1521 1520 1520 1520 1520 1520 1520 1520 1520 1519